Regional Weather Roundup
Issued by NWS Upton, NY

Home | Current Version | Previous Version | Text Only | Print | Product List | Glossary On
Versions: 1 2 3 4 5 6 7 8 9 10 11 12 13 14 15 16 17 18 19 20 21 22 23 24 25 26 27
000
ASUS41 KOKX 161905
RWROKX

REGIONAL WEATHER ROUNDUP
NATIONAL WEATHER SERVICE NEW YORK NY
300 PM EDT WED APR 16 2014

NOTE: "FAIR" INDICATES FEW OR NO CLOUDS BELOW 12,000 FEET WITH NO
SIGNIFICANT WEATHER AND/OR OBSTRUCTIONS TO VISIBILITY.

NYZ071-072-176-178-NJZ106-104-162000-
NEW YORK CITY METRO AREA


CITY           SKY/WX    TMP DP  RH WIND       PRES   REMARKS
CENTRAL PARK   SUNNY     46  15  28 MISG      30.44R
LAGUARDIA APRT MOSUNNY   45  16  31 N14G23    30.40S
KENNEDY INTL   MOSUNNY   48  16  27 N18G28    30.41R
NEWARK/LIBERTY MOSUNNY   48  17  29 NW12G23   30.41S
TETERBORO      SUNNY     47  19  33 N8G22     30.41R
$$

NYZ177-179-078>081-162000-
LONG ISLAND NEW YORK

CITY           SKY/WX    TMP DP  RH WIND       PRES   REMARKS
FARMINGDALE    SUNNY     44  17  33 N15G24    30.39S
ISLIP          SUNNY     45  14  28 N24G32    30.37R
SHIRLEY        SUNNY     44  15  31 NW17G31   30.40R
WESTHAMPTON    SUNNY     45  14  28 N14G24    30.39S
MONTAUK POINT    N/A     45  16  31 N12       30.39R
$$

NYZ052-065-067-162000-
HUDSON VALLEY

CITY           SKY/WX    TMP DP  RH WIND       PRES   REMARKS
WHITE PLAINS   SUNNY     43  20  39 N16       30.39R
NEWBURGH       SUNNY     45  14  29 N12       30.42
MONTGOMERY     SUNNY     44  16  32 N10       30.41R
POUGHKEEPSIE   SUNNY     43  15  32 VRB6      30.42R
ALBANY         MOSUNNY   39  18  42 NW16G22   30.44R WCI  30
$$

NJZ001-105-106-008-010-013-015-019>022-104-162000-
NEW JERSEY

CITY           SKY/WX    TMP DP  RH WIND       PRES   REMARKS
NEWARK/LIBERTY MOSUNNY   48  17  29 NW12G23   30.41S
TETERBORO      SUNNY     47  19  33 N8G22     30.41R
CALDWELL       SUNNY     44  15  31 VRB7G18   30.42S
MORRISTOWN     SUNNY     45  18  33 N12G17    30.43S
SOMERVILLE     SUNNY     45  16  31 N15G22    30.42
LINDEN         FAIR      47  21  35 N14       30.44S
SUSSEX           N/A     44  18  35 N10G16    30.41
ANDOVER          N/A     41  15  35 N9G21     30.42S
TRENTON        SUNNY     45  17  32 N13G24    30.42S
MILLVILLE      SUNNY     47  20  34 N13G23    30.41F
ATLANTIC CITY  SUNNY     48  21  34 NW14      30.40S
WRIGHTSTOWN    SUNNY     46  24  42 NW14      30.39S
TOMS RIVER     SUNNY     45  19  36 N8G17     30.41S
BELMAR         SUNNY     46  19  34 N17       30.40S
$$

PAZ047>061-062-071-162000-
EASTERN PENNSYLVANIA

CITY           SKY/WX    TMP DP  RH WIND       PRES   REMARKS
PHILADELPHIA   MOSUNNY   47  16  29 N15G25    30.44S
ALLENTOWN      SUNNY     43  18  36 N14G20    30.45S
SCRANTON       MOSUNNY   37  18  46 VRB6G17   30.44S WCI  32
$$

CTZ002-004>006-009-010-012-RIZ004-006-007-MAZ004-011-015-162000-
SOUTHERN NEW ENGLAND
 IN CT

CITY           SKY/WX    TMP DP  RH WIND       PRES   REMARKS
BRADLEY INTL   SUNNY     44  13  28 N13G18    30.40R
HARTFORD       SUNNY     44  12  27 NW9G21    30.40R
DANBURY        SUNNY     42  18  37 NW14G20   30.42R
WTRBRY/OXFORD  SUNNY     37  16  41 NW10G23   30.41R WCI  30
BRIDGEPORT     SUNNY     45  11  25 NW21G30   30.39S
MERIDEN        SUNNY     45  12  26 NW17G23   30.40R
NEW HAVEN      SUNNY     45  11  25 NW16G28   30.38R
CHESTER        FAIR      43  10  26 NW15G28   30.36S
GROTON         SUNNY     46  17  31 N17G23    30.36R
WILLIMANTIC    SUNNY     44  13  28 NW18G25   30.38R

 IN RI

CITY           SKY/WX    TMP DP  RH WIND       PRES   REMARKS
PROVIDENCE     MOSUNNY   44  16  32 NW14G25   30.36R
BLOCK ISLAND   SUNNY     45  21  39 N8        30.36R
WESTERLY       SUNNY     46  17  31 NW12G21   30.37R

 IN MA

CITY           SKY/WX    TMP DP  RH WIND       PRES   REMARKS
BOSTON         MOSUNNY   43  16  33 NW14G28   30.36S
WORCESTER      SUNNY     37  15  40 NW20G25   30.34R WCI  27
WESTFIELD      SUNNY     43  15  32 MISG      30.40R
PROVINCETOWN   SUNNY     39  19  45 MISG      30.38R
NANTUCKET      SUNNY     41  20  43 N24G33    30.34R
$$

ANZ330-335-338-340-345-350-353-355-162000-
COASTAL MARINE OBSERVATIONS


STATION/POSITION TIME  SKY/WX   TEMP    WIND        PRES    VSBY  WAVE
                                AIR SEA DIR/SP/G                  HT/PER
                 (UTC)          (F)     (DEG/KT/KT) (MB)    (MI)  (FT/S)
NY HARB ENTRANCE 1900            42 43  330/ 12/ 16 1029.6
4S FIRE IS       1800               44                N/A           3/13
23SW MTP         1900            39 42  350/ 12/ 14 1028.7          5/11
HUDSON CANYON    1800            37 45  350/ 21/ 27 1028.4          9/ 7
EXECUTION ROCKS  1900            43 42  350/ 12/ 19   N/A
WESTERN LI SOUND 1900            42     340/ 12/ 14   N/A           1/ 2
CENTRAL LI SOUND 1800            40 42  320/ 14/ 17   N/A           2/ 3
EASTERN LI SOUND NOT AVBL
ROBBINS REEF     1900            42     330/ 15/ 23   N/A
$$


>>>>>>>>>>>>>>>>>>>>>>>>>>>> KEY <<<<<<<<<<<<<<<<<<<<<<<<<<<
>                                                          <
>     SKY/WX - SKY CONDITION/PRESENT WEATHER               <
>     TMP    - TEMPERATURE IN FAHRENHEIT                   <
>     DP     - DEWPOINT IN FAHRENHEIT                      <
>     RH     - RELATIVE HUMIDITY IN PERCENT                <
>     WIND   - DIRECTION AND SPEED IN MPH                  <
>     PRES   - MEAN SEA LEVEL PRESSURE IN INCHES OF HG     <
>     WCI    - WIND CHILL INDEX                            <
>     VSB    - VISIBILITY IN MILES                         <
>     HX     - HEAT INDEX                                  <
>     TC     - TEMPERATURE IN CELSIUS                      <
>     VRB    - VARIABLE WIND DIRECTION                     <
>                                                          <
>>>>>>>>>>>>>>>>>>>>>>>>>>>> KEY <<<<<<<<<<<<<<<<<<<<<<<<<<<





USA.gov is the U.S. government's official web portal to all federal, state and local government web resources and services.